Home > Weather > Reykjavik > Past weeks

Flag for Iceland Weather for the Past 2 Weeks in Reykjavik, Iceland

Now
18 °F

Passing clouds.


Feels Like: 11 °F
Forecast: 18 / 26 °F
Wind: 5 mph from South

Location: Reykjavik Airport

Current Time: Feb 9, 2016 at 2:26:31 AM

Latest Report: Feb 9, 2016 at 1:00 AM


Visibility: N/A

Pressure: 29.36 "Hg

Humidity: 68%

Dew point: 9 °F

Location of ReykjavikLocation

Historic Weather in Reykjavik — Graph

°F

Reykjavik Temperature Yesterday

Maximum temperature yesterday: 34 °F (at 12:00 AM)
Minimum temperature yesterday: 21 °F (at 8:00 PM)
Average temperature yesterday: 27 °F

High & Low Weather Summary for the Past Weeks

 TemperatureHumidityPressure
High41 °F (Jan 25, 1:00 AM)100% (Jan 26, 10:00 AM)30.01 "Hg (Jan 26, 10:00 AM)
Low10 °F (Jan 31, 8:00 AM)41% (Feb 7, 6:00 PM)28.53 "Hg (Feb 5, 5:00 PM)
Average29 °F71%29.06 "Hg
* Reported Jan 25 1:00 AM — Feb 9 1:00 AM, Reykjavik, Weather by CustomWeather, © 2016

Note: Actual official high and low records may vary slightly from our data, if they occured in-between our weather recording intervals... More about our weather records

Advertising

Reykjavik Weather History for the Previous 24 Hours

 ConditionsComfort  
Time TempWeatherWind HumidityBarometerVisibility
1:00 AM
Tue, Feb 9
18 °FPassing clouds.5 mph68%29.36 "HgN/A
12:00 AM19 °FClear.7 mph63%29.36 "Hg10 mi
11:00 PM
Mon, Feb 8
23 °FPassing clouds.12 mph58%29.36 "HgN/A
10:00 PM23 °FClear.22 mph63%29.39 "Hg10 mi
9:00 PM23 °FPassing clouds.3 mph63%29.39 "HgN/A
8:00 PM21 °FClear.6 mph68%29.36 "Hg10 mi
7:00 PM23 °FPassing clouds.3 mph63%29.36 "HgN/A
6:00 PM23 °FClear.2 mph63%29.33 "Hg10 mi
5:00 PM27 °FSunny.6 mph59%29.30 "Hg10 mi
4:00 PM27 °FSunny.8 mph59%29.30 "Hg10 mi
3:00 PM27 °FSunny.12 mph59%29.30 "Hg10 mi
2:00 PM28 °FPassing clouds.9 mph55%29.30 "HgN/A
1:00 PM28 °FSunny.10 mph55%29.30 "Hg10 mi
12:00 PM28 °FPassing clouds.6 mph59%29.27 "HgN/A
11:00 AM28 °FSunny.13 mph59%29.27 "Hg10 mi
10:00 AM28 °FSunny.14 mph59%29.24 "Hg10 mi
9:00 AM28 °FClear.12 mph59%29.24 "Hg10 mi
8:00 AM28 °FClear.12 mph59%29.21 "Hg10 mi
7:00 AM28 °FPassing clouds.9 mph59%29.18 "HgN/A
6:00 AM28 °FClear.14 mph59%29.18 "Hg10 mi
5:00 AM30 °FClear.14 mph59%29.15 "Hg10 mi
4:00 AM30 °FClear.13 mph59%29.12 "Hg10 mi
3:00 AM32 °FClear.9 mph55%29.12 "Hg10 mi
2:00 AM30 °FClear.8 mph69%29.12 "Hg10 mi
Weather by CustomWeather, © 2016

See weather overviewHow to use our weather pages